カタログに戻る

ONEWEB-0581

運用中通信PO
NORAD 56069·PAYLOAD·🇬🇧 United Kingdom

打ち上げ Mar 26, 2023 から Satish Dhawan Space Centre

Loading…

次のパス (今後24時間)

TLE

最新Source: CelesTrak SupGP

元期: Sep 14, 2026, 21:49 UTC

1 56069C 23043Z   26257.90955278 -.00002685  00000+0 -70319-2 0  2576
2 56069  87.9145 210.9650 0002566  87.1967 305.5025 13.16597923    19

AllMySatでONEWEB-0581をリアルタイム追跡

Download on the App Store